"Pseudo-MPEC" for A10WPOZ

Created 2023 Sep 22 11:22:02 UT using Find_Orb

Click here for an explanation of pseudo-MPECs

 
 Astrometry: 
     A10WPOZ  C2023 09 10.10935 16 54 18.83 +35 56 07.2    ~9LMM 20.2 GVNEOCPG96
     A10WPOZ  C2023 09 10.11463 16 54 22.43 +35 55 31.4    ~9LMM 20.9 GVNEOCPG96
     A10WPOZ  C2023 09 10.12523 16 54 29.77 +35 54 19.9    ~9LMM 21.9 GVNEOCPG96
     A10WPOZ* C2023 09 18Du?1P:IRw?A@WAstrometryfRJ:fadvYr+RC+csC.nsEWvQT;rNLM22
     A10WPOZ  C2023 09 188hc@TJ^+)V65SuxMr`Ah3@E/rS%D'Q7at[($sgaO#v]RNd$i_mlfM22
     A10WPOZ  C2023 09 18REv'PgCJg$SEx@`'x6d*eN/T40nHPFHuv*LdMP++)Q]$keV()`m2M22
     A10WPOZ  C2023 09 18I!%enNpnvEjZq.-:m_EPc6osrSZ?e]@?c`g70[gU%H'hU)(h'S,qM22
     A10WPOZ  C2023 09 21%jU9/tw*9`jZQo/Of6=v?yx.+:w.sA=3Q8d[+J%f!Y5shd`Y'6x4W68
     A10WPOZ  C2023 09 21,`t8(tYEad7KyCOXc*7x#Zc=9DSk%hReRWDkCAU[lUXu3A%%?)9\W68
     A10WPOZ  C2023 09 21F,'w,BOK^(]\bNY*)nP8LLLGQ+g4D#5P*iMje#p#_S_!'r_0g6ImW68
     A10WPOZ  C2023 09 21O;G4\\X_qredacted;bD`54Kl*N+7g-9l)\,Nx5iFIK('dSC.m2CW68
     A10WPOZ  C2023 09 21r%'d?gq7@aL5yaXyd)[Em4hclickV[!ySZZSDytherekZ1;48PgSM28
     A10WPOZ  C2023 09 21.fkGc95Rop-H#g(V1\PMM+a^FvPQc*9*H_QexAqm7$o;kwK#3V*`M28
     A10WPOZ  C2023 09 21aFyaBOl_3,i5ku!CLjSQ_Hv\NSp*^0E*/,9yforeL_/bP*=MFi=SM28
     A10WPOZ KB2023 09 21tVq8^J.hbs3l(?LurlHW!da_[4_JQly-HpF,t.N]'aOd[V_-Hae#Y05
     A10WPOZ KB2023 09 21Kb,oG190.ZTT+7DlA.'wG5y/T44du)e,^XplNP+^6P:\qHdHpSGYY05
     A10WPOZ KB2023 09 21a#muAhY,t=DcmN=x33hcNJ4Ph6A]Y(`MX[;7gj.+explanationhY05

Station data:
(G96) Mt. Lemmon Survey  (N32.442751 W110.788720)  US/Arizona.  Observers T.
   A. Pruyne, B. M. Africano, E. J. Christensen, G. A. Farneth, D. C. Fuls,
   A. R. Gibbs, A. D. Grauer, H. Gröller, J. A. Johnson, R. A. Kowalski, S.
   M. Larson, G. J. Leonard, D. Rankin, R. L. Seaman, F. C. Shelly, K. W.
   Wierzchoś. 1.5-m reflector + 10K CCD.
(M22) ATLAS South Africa, Sutherland  (S32.380156 E20.810590)  South Africa.
   Observers L. Denneau, R. Siverd, J. Tonry, H. Weiland. Measurers L.
   Denneau, N. Erasmus, A. Fitzsimmons, A. Lawrence, J. Robinson, R. Siverd,
   J. Tonry, H. Weiland. 0.5-m reflector + CCD.
(M28) Lesedi Telescope-SAAO Observatory, Sutherland  (S32.379790 E20.810640)
   South Africa.  Observer N. Erasmus. 1.0-m f/8 Reflector + CCD.
(W68) ATLAS Chile, Rio Hurtado  (S30.471010 W70.764980)  Chile.  Observers L.
   Denneau, R. Siverd, J. Tonry, H. Weiland. Measurers L. Denneau, N.
   Erasmus, A. Fitzsimmons, A. Lawrence, J. Robinson, R. Siverd, J. Tonry, H.
   Weiland. 0.5-m reflector + CCD.
(Y05) SONEAR Wykrota-CEAMIG, Serra da Piedade  (S19.824251 W43.690000)
   Brazil.  Observer C. Jacques. 0.45-m f/2.9 reflector + CMO.

Orbital elements:  A10WPOZ
   Perihelion 2023 Aug 13.03388 +/- 0.04 TT =  0:48:47 (JD 2460169.53388)
Epoch 2023 Sep 21.0 TT = JDT 2460208.5   Earth MOID: 0.0175      AutoNEOCP
M  25.62163507 +/- 0.07             (J2000 ecliptic)
n   0.65753622 +/- 0.00134          Peri.  138.21054 +/- 0.026
a   1.30975358 +/- 0.00177          Node   174.78003 +/- 0.0035
e   0.2582077 +/- 0.00104           Incl.   16.18432 +/- 0.041
P   1.50/547.49d           H 24.07  G  0.15   U  8.3
q 0.97156503 +/- 5.07e-5    Q 1.64794212 +/- 0.0036
15 of 17 observations 2023 Sept. 10-21; mean residual 0".58
Residuals in arcseconds: 
230910 G96  .11+  .18+    230918 M22( 1.4-  1.8+)   230921 M28  1.3-  1.1+    
230910 G96  .24-  .12-    230921 W68  .02+  .25+    230921 M28  1.5-  .97+    
230910 G96  .14+  .01-    230921 W68  .06-  .43-    230921 Y05  .83+  .42-    
230918 M22( 2.8+  3.4-)   230921 W68  .05-  .18-    230921 Y05  .30+  .22-    
230918 M22  .02-  .15-    230921 W68  .18+  .16+    230921 Y05  .34+  .33-    
230918 M22  .04+  .02+    230921 M28  1.2+  .81-    

Ephemerides (geocentric):
Date (UTC) HH   RA             Dec           delta  r     elong  mag " sig PA
---- --------  ------------   ------------  ------ ------ -----  --- --------
2023 09 22 11  22 07 41.980   -35 19 03.73  .03941 1.0330 137.0 18.7 .162 150
2023 09 22 12  22 08 48.919   -35 28 36.61  .03958 1.0331 137.0 18.7 .164 151
2023 09 22 13  22 09 55.539   -35 38 02.04  .03976 1.0332 137.0 18.8 .165 152
2023 09 22 14  22 11 01.840   -35 47 20.11  .03993 1.0334 137.0 18.8 .167 154
2023 09 22 15  22 12 07.820   -35 56 30.88  .04011 1.0335 137.0 18.8 .169 155
2023 09 22 16  22 13 13.480   -36 05 34.45  .04029 1.0336 137.0 18.8 .171 156
2023 09 22 17  22 14 18.817   -36 14 30.88  .04047 1.0337 137.0 18.8 .173 157
2023 09 22 18  22 15 23.832   -36 23 20.26  .04065 1.0338 137.0 18.8 .174 158
2023 09 22 19  22 16 28.525   -36 32 02.66  .04083 1.0340 136.9 18.8 .176 159
2023 09 22 20  22 17 32.893   -36 40 38.16  .04101 1.0341 136.9 18.8 .178 161
2023 09 22 21  22 18 36.938   -36 49 06.84  .04119 1.0342 136.9 18.8 .180 162
2023 09 22 22  22 19 40.658   -36 57 28.78  .04138 1.0343 136.9 18.8 .182 163
2023 09 22 23  22 20 44.054   -37 05 44.05  .04156 1.0344 136.9 18.9 .184 164
2023 09 23 00  22 21 47.125   -37 13 52.73  .04175 1.0346 136.9 18.9 .185 165
2023 09 23 01  22 22 49.871   -37 21 54.91  .04193 1.0347 136.9 18.9 .187 166
2023 09 23 02  22 23 52.292   -37 29 50.65  .04212 1.0348 136.8 18.9 .189 167
2023 09 23 03  22 24 54.387   -37 37 40.03  .04231 1.0349 136.8 18.9 .191 168
2023 09 23 04  22 25 56.157   -37 45 23.12  .04249 1.0350 136.8 18.9 .193 169
2023 09 23 05  22 26 57.602   -37 53 00.01  .04268 1.0351 136.8 18.9 .195 171
2023 09 23 06  22 27 58.721   -38 00 30.77  .04287 1.0353 136.8 18.9 .197 172
2023 09 23 07  22 28 59.516   -38 07 55.47  .04306 1.0354 136.7 18.9 .199 173
2023 09 23 08  22 29 59.985   -38 15 14.18  .04325 1.0355 136.7 18.9 .202 174
2023 09 23 09  22 31 00.129   -38 22 26.99  .04345 1.0356 136.7 19.0 .204 175
2023 09 23 10  22 31 59.950   -38 29 33.95  .04364 1.0357 136.7 19.0 .206 176
2023 09 23 11  22 32 59.445   -38 36 35.15  .04383 1.0359 136.6 19.0 .208 177
2023 09 23 12  22 33 58.617   -38 43 30.66  .04402 1.0360 136.6 19.0 .211 178
2023 09 23 13  22 34 57.466   -38 50 20.55  .04422 1.0361 136.6 19.0 .213 179
2023 09 23 14  22 35 55.992   -38 57 04.88  .04441 1.0362 136.6 19.0 .216   0
2023 09 23 15  22 36 54.195   -39 03 43.74  .04461 1.0363 136.5 19.0 .218   1
2023 09 23 16  22 37 52.076   -39 10 17.19  .04481 1.0365 136.5 19.0 .221   2
2023 09 23 17  22 38 49.636   -39 16 45.29  .04500 1.0366 136.5 19.0 .223   3
2023 09 23 18  22 39 46.875   -39 23 08.12  .04520 1.0367 136.5 19.1 .226   4
2023 09 23 19  22 40 43.793   -39 29 25.74  .04540 1.0368 136.4 19.1 .228   5
2023 09 23 20  22 41 40.393   -39 35 38.23  .04560 1.0369 136.4 19.1 .231   6
2023 09 23 21  22 42 36.673   -39 41 45.65  .04580 1.0371 136.4 19.1 .234   7
2023 09 23 22  22 43 32.636   -39 47 48.06  .04600 1.0372 136.3 19.1 .237   8
2023 09 23 23  22 44 28.281   -39 53 45.53  .04620 1.0373 136.3 19.1 .240   9
2023 09 24 00  22 45 23.610   -39 59 38.12  .04640 1.0374 136.3 19.1 .243  10
2023 09 24 01  22 46 18.623   -40 05 25.91  .04660 1.0376 136.2 19.1 .246  10
2023 09 24 02  22 47 13.322   -40 11 08.94  .04681 1.0377 136.2 19.1 .249  11
2023 09 24 03  22 48 07.707   -40 16 47.29  .04701 1.0378 136.2 19.1 .252  12
2023 09 24 04  22 49 01.779   -40 22 21.02  .04721 1.0379 136.1 19.2 .255  13
2023 09 24 05  22 49 55.539   -40 27 50.18  .04742 1.0380 136.1 19.2 .259  14
2023 09 24 06  22 50 48.988   -40 33 14.85  .04762 1.0382 136.1 19.2 .262  15
2023 09 24 07  22 51 42.128   -40 38 35.07  .04783 1.0383 136.0 19.2 .265  15
2023 09 24 08  22 52 34.959   -40 43 50.91  .04803 1.0384 136.0 19.2 .269  16
2023 09 24 09  22 53 27.482   -40 49 02.42  .04824 1.0385 136.0 19.2 .272  17
2023 09 24 10  22 54 19.698   -40 54 09.68  .04845 1.0386 135.9 19.2 .276  18